Wind_Speed
31 34 36 35 30 28 28 32 35 39 42 40 35 27 28 30 36 38 35 40 35 34 32 28 22 18 16 14 13 12 10 11 13 12 13 15 18 21 21 22 23 23 23
32 34 34 34 28 28 28 27 25 31 36 32 26 24 28 31 32 41 42 35 35 33 31 25 20 18 16 13 10 9 9 9 9 9 11 13 17 20 23 24 21 20 21
34 35 34 31 29 28 25 26 27 27 27 25 27 24 28 29 25 33 34 37 35 34 22 21 17 15 11 9 8 6 7 7 7 8 11 14 17 21 23 23 21 18 18
34 35 32 30 26 24 20 25 24 22 23 26 25 23 25 26 25 33 33 30 35 32 25 22 18 13 9 8 5 5 5 5 7 9 11 14 18 22 24 24 24 25 22
35 35 33 26 20 16 12 19 22 26 26 24 20 22 26 27 26 38 37 40 43 35 30 23 19 14 10 5 5 4 3 6 7 9 12 15 19 22 24 26 27 29 23
35 34 20 15 14 7 12 19 31 30 26 23 21 20 29 31 26 40 41 41 34 31 29 26 20 13 8 7 5 2 4 5 7 10 14 16 18 20 22 24 27 29 29
30 25 11 14 7 10 19 27 27 28 28 27 25 27 29 31 29 40 41 36 31 30 26 20 14 14 9 6 5 5 6 7 9 12 14 16 18 21 22 24 24 22 23
24 15 7 11 3 13 21 26 30 32 33 29 30 32 34 35 42 41 39 35 33 27 21 17 15 14 12 7 6 5 5 7 10 12 14 16 19 20 20 20 19 21 21
19 12 1 3 10 15 22 28 32 33 31 29 33 37 43 42 37 36 37 34 32 28 22 16 12 13 12 8 5 4 5 8 11 13 13 15 17 18 17 19 19 23 25
15 9 1 11 19 22 30 35 38 35 36 39 44 44 44 45 40 39 32 33 32 27 23 19 14 10 10 8 5 6 6 11 11 9 10 14 18 18 16 16 19 20 21
6 3 9 14 20 28 35 39 43 46 52 54 53 48 46 43 39 37 34 30 29 27 23 20 17 12 11 10 10 11 15 15 13 13 13 14 16 18 15 15 16 17 18
5 10 18 23 27 33 38 42 47 55 55 53 53 52 48 47 43 36 31 24 23 24 25 23 19 15 15 16 16 17 16 14 16 15 14 17 20 22 21 17 15 14 14
11 18 25 29 33 40 47 52 54 56 61 59 58 53 48 42 38 33 31 27 25 27 26 23 20 19 18 20 20 18 18 20 21 21 20 18 21 23 22 18 14 16 9
20 24 25 29 36 40 44 53 55 54 59 58 56 55 50 45 40 34 30 27 26 27 26 24 23 23 23 23 21 24 25 24 24 21 20 19 17 18 22 21 18 18 20
23 27 31 36 40 42 44 45 47 46 48 54 51 49 45 40 34 29 27 25 26 26 27 26 25 25 25 25 26 27 25 24 23 24 24 21 18 19 22 21 19 22 20
24 29 32 35 38 44 45 43 42 46 45 44 43 41 38 36 31 27 26 26 24 24 27 29 28 27 28 27 28 27 27 26 26 25 23 20 19 21 22 25 24 24 23
30 33 41 43 44 43 43 45 47 42 40 37 35 34 33 31 27 25 24 24 23 21 27 28 28 29 28 28 27 26 28 26 25 25 23 21 20 21 23 27 25 26 24
35 39 42 42 41 43 45 45 43 43 42 39 32 30 27 26 24 22 21 22 25 26 27 27 28 27 27 27 26 26 26 26 27 24 23 24 22 23 24 25 26 27 27
36 38 39 42 43 43 44 43 42 42 41 38 33 28 24 24 23 22 19 24 27 27 26 26 26 23 25 25 25 25 27 27 24 25 25 25 25 26 23 24 25 26 26
33 37 38 38 41 41 41 42 41 39 37 33 29 27 23 24 25 25 26 27 27 27 25 24 23 22 23 22 24 25 26 25 26 28 27 26 26 25 24 24 26 28 27
30 30 31 34 36 37 38 38 37 34 32 30 28 23 22 25 28 28 27 26 26 25 24 23 23 22 21 22 24 26 25 27 29 29 28 28 27 24 24 24 24 27 27
29 28 29 32 34 35 34 33 31 31 30 30 28 24 22 25 27 26 25 25 24 23 21 21 22 22 22 23 25 24 26 29 30 30 29 28 27 24 23 25 25 28 27
27 25 29 32 32 31 31 30 29 29 28 27 25 24 23 25 25 24 22 23 21 19 19 20 21 23 24 23 23 24 26 29 30 30 29 29 28 25 23 25 26 26 26
26 30 32 31 29 30 29 28 27 26 26 25 24 24 24 24 24 22 21 19 18 18 17 18 20 22 22 24 24 24 25 26 28 29 29 29 28 25 23 23 26 26 27
29 32 29 28 28 28 27 26 25 24 23 22 23 25 25 24 23 21 19 17 17 16 18 17 19 19 21 23 23 23 24 25 27 28 28 29 28 27 26 24 25 27 28
32 30 29 27 25 24 23 24 23 23 23 24 24 24 24 22 22 19 19 17 17 16 16 17 19 18 20 22 24 23 23 25 27 29 29 30 31 29 27 24 24 27 28
Wind_Direction
311 317 305 299 283 279 276 263 256 240 230 238 234 230 241 241 236 234 225 213 217 222 225 228 219 224 233 236 250 254 255 262 259 266 279 293 303 306 312 318 323 322 316
315 313 307 303 287 282 275 253 244 230 228 231 219 226 237 236 233 233 223 213 209 208 208 211 213 216 221 232 242 255 266 273 272 286 295 304 310 315 322 326 329 333 325
319 311 303 301 291 285 276 241 233 229 224 213 214 223 228 231 236 226 218 214 206 203 202 204 211 210 213 227 238 256 270 273 292 303 314 320 322 322 325 331 337 343 345
322 315 307 298 291 282 269 223 220 207 196 194 210 222 223 221 225 218 209 201 198 185 203 207 201 194 201 213 221 238 255 295 317 327 329 329 329 329 335 341 348 351 358
323 316 310 299 283 283 233 208 206 192 187 198 208 208 219 220 213 216 209 201 198 187 186 172 173 179 191 189 212 227 293 326 333 333 333 337 338 342 346 352 352 348 4
328 322 316 298 287 221 193 205 190 184 187 194 191 200 204 195 212 197 194 170 173 160 163 161 164 167 179 200 210 266 334 352 340 340 345 352 350 347 351 353 358 356 1
333 333 321 310 323 204 189 182 178 180 181 182 185 189 192 184 194 166 163 152 146 149 154 157 147 157 157 143 101 49 18 357 346 359 1 1 357 354 350 355 1 355 354
334 334 310 307 256 205 193 181 174 175 174 174 174 178 178 168 165 158 146 146 141 136 138 134 144 136 122 108 75 48 14 348 3 14 14 9 0 357 353 357 357 356 356
343 344 336 192 174 172 167 165 162 162 160 163 168 160 151 143 147 139 141 142 134 130 121 125 131 124 112 97 69 42 18 18 23 26 21 11 4 354 351 359 2 356 354
358 356 161 150 154 163 159 155 155 159 155 148 138 136 136 135 141 141 138 129 124 124 130 125 117 119 115 102 86 67 56 46 39 37 27 13 5 355 353 359 354 350 346
32 67 124 144 148 150 151 149 149 146 142 137 133 131 127 124 115 112 114 118 122 128 125 120 119 121 114 104 85 69 56 45 31 26 25 19 14 8 5 4 353 347 342
62 113 125 135 137 136 144 142 141 136 131 129 124 119 116 112 111 112 110 121 132 126 119 115 114 113 100 84 69 61 56 45 37 32 24 18 16 13 12 360 1 352 341
105 117 120 131 128 126 132 137 134 131 127 123 119 120 117 116 117 122 129 131 123 113 107 109 111 97 84 76 68 60 52 43 34 29 23 15 13 12 4 359 352 2 10
113 117 122 128 125 122 126 130 127 126 124 120 120 119 121 125 127 126 123 117 110 103 106 105 94 88 79 72 64 54 44 37 32 28 22 18 16 13 12 15 21 17 11
121 125 126 129 129 129 123 122 120 118 120 122 125 123 124 123 121 119 112 106 102 100 100 96 89 82 75 66 59 51 44 41 33 30 23 22 23 19 17 20 23 20 22
117 119 122 124 121 118 113 110 113 119 123 120 118 117 113 111 115 111 103 95 97 103 97 88 82 73 65 59 53 46 40 37 33 28 25 26 25 20 17 23 25 23 21
120 124 124 121 118 114 115 114 114 113 109 107 107 106 105 108 105 101 99 102 104 102 90 84 76 69 62 55 50 43 39 36 32 27 25 29 28 26 25 23 24 24 25
125 121 116 114 115 116 116 117 116 114 111 108 104 104 104 104 105 106 109 110 102 88 83 77 73 66 61 55 48 41 38 35 31 25 27 30 29 26 27 25 27 27 25
122 120 121 122 122 122 122 121 119 117 116 115 117 113 111 109 108 108 113 100 94 87 80 75 69 66 59 52 46 42 38 34 29 28 30 26 29 30 29 27 29 32 30
129 130 130 128 127 127 126 125 123 120 117 118 117 113 114 115 113 108 99 94 89 82 78 74 71 66 60 53 47 44 40 34 32 31 29 29 30 29 30 33 32 34 30
127 128 132 133 133 132 129 125 122 120 119 115 109 109 113 111 108 104 99 92 87 82 76 71 65 64 63 56 49 45 39 34 33 32 29 29 30 32 32 35 35 38 34
134 139 137 136 135 132 127 122 120 117 114 112 111 111 113 110 107 104 99 93 87 82 77 71 69 65 62 56 49 43 36 33 33 31 29 29 31 33 37 39 40 40 38
145 140 138 135 133 130 125 121 121 119 115 111 110 111 113 110 106 102 99 93 88 83 77 71 68 62 58 53 47 41 35 31 30 29 29 30 33 35 40 41 42 41 36
141 142 141 138 137 133 130 128 123 119 116 116 116 113 112 108 104 101 97 94 90 84 77 71 67 62 55 51 45 42 36 33 31 31 31 31 35 37 45 45 46 49 47
144 147 146 142 140 136 133 127 123 123 121 119 118 116 113 110 106 101 98 92 86 82 77 71 66 60 56 49 44 42 38 34 33 35 35 36 39 39 46 48 48 49 47
147 149 146 143 141 136 131 131 128 125 125 123 121 117 114 111 106 102 96 90 86 82 78 73 66 58 54 48 43 40 40 37 36 37 37 38 40 42 46 51 54 54 53
Height
1387 1381 1375 1370 1369 1368 1367 1366 1367 1371 1377 1383 1392 1398 1404 1409 1412 1417 1422 1427 1433 1439 1443 1451 1454 1458 1462 1463 1464 1465 1466 1466 1466 1465 1464 1461 1460 1456 1453 1447 1442 1438 1432
1378 1372 1367 1362 1360 1358 1357 1357 1359 1363 1368 1376 1385 1391 1397 1400 1405 1410 1414 1420 1428 1435 1440 1446 1451 1456 1458 1459 1461 1463 1464 1463 1464 1462 1459 1459 1458 1453 1447 1442 1438 1433 1428
1369 1363 1357 1353 1351 1349 1347 1348 1352 1357 1364 1372 1380 1384 1390 1395 1398 1403 1410 1417 1425 1431 1436 1446 1450 1454 1456 1457 1460 1461 1461 1463 1460 1459 1458 1456 1453 1448 1444 1438 1434 1430 1424
1360 1353 1348 1344 1342 1339 1337 1340 1346 1353 1360 1368 1375 1378 1386 1391 1394 1399 1407 1414 1419 1421 1432 1443 1448 1454 1455 1457 1458 1459 1461 1461 1458 1459 1457 1453 1449 1444 1439 1434 1429 1424 1420
1353 1345 1340 1336 1334 1331 1332 1337 1344 1351 1356 1365 1371 1376 1382 1386 1390 1394 1401 1409 1411 1419 1432 1438 1450 1453 1454 1454 1458 1459 1458 1458 1458 1457 1455 1450 1445 1440 1436 1430 1426 1421 1418
1347 1339 1332 1330 1328 1328 1331 1337 1342 1347 1353 1360 1366 1372 1379 1382 1385 1390 1396 1404 1413 1415 1432 1440 1447 1450 1452 1455 1458 1458 1457 1458 1459 1455 1452 1447 1443 1438 1432 1429 1424 1419 1413
1345 1337 1332 1331 1329 1329 1331 1337 1341 1346 1352 1359 1364 1369 1377 1381 1384 1393 1397 1405 1413 1426 1436 1443 1445 1450 1454 1457 1458 1456 1457 1459 1458 1453 1450 1446 1442 1436 1433 1427 1425 1422 1416
1343 1339 1335 1334 1332 1333 1335 1337 1341 1347 1352 1358 1365 1369 1375 1382 1389 1397 1402 1409 1420 1431 1441 1445 1450 1452 1455 1457 1457 1457 1457 1460 1455 1450 1448 1446 1440 1435 1433 1431 1426 1421 1417
1345 1341 1339 1337 1335 1337 1339 1341 1345 1350 1356 1363 1368 1372 1377 1388 1396 1398 1409 1413 1424 1438 1443 1451 1455 1456 1455 1456 1457 1457 1459 1457 1452 1449 1447 1444 1440 1436 1432 1431 1426 1419 1416
1348 1344 1342 1341 1339 1340 1342 1344 1348 1353 1358 1366 1373 1381 1386 1389 1402 1406 1415 1420 1428 1437 1447 1454 1457 1459 1458 1457 1459 1458 1456 1454 1453 1451 1447 1443 1440 1438 1433 1429 1425 1420 1417
1353 1348 1347 1347 1345 1347 1346 1349 1351 1355 1362 1371 1377 1387 1394 1400 1408 1415 1423 1429 1437 1445 1450 1453 1459 1461 1460 1460 1460 1457 1452 1452 1452 1449 1445 1443 1441 1438 1434 1429 1425 1421 1418
1358 1353 1351 1352 1354 1356 1352 1356 1359 1364 1369 1377 1383 1393 1404 1409 1416 1425 1430 1441 1450 1451 1454 1458 1460 1463 1463 1460 1458 1456 1454 1454 1450 1447 1445 1443 1440 1438 1433 1430 1425 1422 1418
1364 1361 1358 1359 1361 1362 1362 1364 1369 1371 1376 1386 1392 1402 1410 1420 1429 1436 1443 1452 1456 1455 1457 1461 1464 1462 1462 1459 1458 1459 1455 1451 1450 1447 1446 1445 1442 1439 1436 1431 1426 1422 1418
1370 1369 1368 1369 1372 1372 1373 1374 1378 1384 1387 1393 1402 1408 1418 1428 1436 1443 1450 1457 1459 1456 1461 1463 1463 1462 1461 1460 1461 1456 1454 1453 1451 1450 1450 1447 1443 1439 1436 1432 1427 1422 1416
1377 1376 1376 1377 1380 1383 1384 1388 1391 1396 1398 1403 1412 1417 1424 1434 1443 1450 1454 1459 1458 1459 1460 1463 1464 1464 1463 1463 1461 1458 1460 1457 1457 1452 1452 1449 1447 1441 1438 1434 1428 1422 1417
1386 1386 1388 1390 1392 1395 1397 1402 1408 1412 1417 1421 1424 1430 1438 1444 1448 1453 1456 1457 1460 1463 1463 1463 1467 1467 1465 1466 1463 1465 1465 1463 1459 1457 1453 1450 1446 1443 1440 1433 1428 1424 1418
1393 1395 1397 1400 1403 1406 1408 1411 1414 1426 1430 1434 1438 1442 1445 1448 1453 1456 1459 1463 1466 1469 1467 1468 1469 1469 1470 1470 1469 1472 1468 1467 1464 1461 1459 1452 1449 1445 1441 1434 1429 1425 1420
1402 1406 1409 1412 1416 1418 1421 1424 1427 1430 1434 1441 1449 1452 1455 1458 1462 1466 1469 1471 1472 1474 1475 1474 1474 1476 1476 1476 1477 1478 1476 1470 1468 1467 1462 1456 1451 1447 1442 1437 1432 1427 1422
1415 1417 1421 1423 1425 1428 1431 1435 1439 1442 1445 1451 1458 1463 1468 1469 1470 1473 1476 1476 1476 1477 1479 1480 1480 1484 1481 1482 1482 1483 1478 1474 1473 1469 1464 1463 1454 1448 1444 1441 1435 1430 1426
1426 1428 1430 1433 1436 1440 1443 1445 1449 1452 1456 1461 1466 1470 1473 1474 1477 1479 1480 1482 1484 1485 1486 1487 1488 1488 1487 1489 1488 1485 1481 1480 1476 1473 1468 1464 1457 1451 1447 1443 1439 1433 1429
1436 1439 1441 1443 1446 1448 1451 1455 1459 1463 1466 1470 1472 1477 1479 1480 1482 1485 1487 1490 1491 1493 1494 1495 1495 1495 1495 1494 1492 1488 1488 1484 1480 1475 1471 1465 1460 1454 1451 1447 1443 1438 1433
1445 1447 1449 1452 1455 1458 1461 1464 1468 1471 1474 1475 1478 1482 1486 1488 1489 1493 1495 1497 1500 1500 1502 1504 1501 1503 1499 1496 1495 1495 1493 1487 1482 1479 1474 1468 1463 1459 1454 1451 1446 1442 1438
1452 1454 1457 1461 1465 1467 1469 1473 1477 1479 1480 1483 1486 1490 1495 1498 1498 1501 1505 1504 1506 1509 1510 1510 1508 1507 1504 1502 1501 1500 1496 1491 1487 1483 1478 1472 1467 1462 1459 1455 1451 1447 1443
1458 1462 1466 1469 1473 1475 1478 1482 1484 1487 1489 1492 1495 1498 1502 1504 1505 1508 1511 1512 1513 1516 1517 1516 1513 1510 1512 1508 1507 1504 1501 1497 1493 1488 1482 1477 1472 1467 1463 1460 1456 1453 1449
1464 1468 1472 1475 1479 1482 1485 1486 1489 1493 1496 1499 1502 1503 1507 1509 1512 1516 1518 1520 1520 1521 1520 1522 1520 1520 1515 1514 1512 1509 1505 1502 1498 1493 1487 1482 1477 1472 1468 1464 1462 1458 1454
1470 1474 1477 1481 1484 1487 1489 1494 1497 1500 1503 1507 1510 1511 1512 1517 1516 1522 1522 1525 1525 1526 1527 1526 1525 1526 1522 1518 1516 1513 1510 1506 1502 1497 1492 1487 1482 1477 1473 1470 1468 1464 1461